User: anonymous   Login
Location: Unspecified
(0.0000°N, 0.0000°E)
Time: 10:55:38
(UTC+00:00)
Language:

CASSIOPE - Orbit

View from above orbital plane
View from above orbital plane
View from above satellite
View from above satellite

Ground track
Ground track

The orbit data is extracted from the following two-line orbital elements,

1 39265U 13055A   17269.20286743  .00005496  00000-0  16173-3 0  9991
2 39265  80.9676 270.4990 0683554 320.5710  34.7545 14.23762804205870
Epoch (UTC): 26 September 2017 04:52:07
Eccentricity: 0.0683554
inclination: 80.9676°
perigee height: 321 km
apogee height: 1304 km
right ascension of ascending node: 270.4990°
argument of perigee: 320.5710°
revolutions per day: 14.23762804
mean anomaly at epoch: 34.7545°
orbit number at epoch: 20587

The dashed part of the orbit path shows where the satellite is in the earth's shadow,  

DLR